When you browse on this site, cookies collect data to enhance your experience and personalize the content and advertising you see.
Visit our Privacy Policy to learn more. By continuing to use the site, you agree to this use of cookies and data.
  • In France
  • List of Countries
  • For 7 days
  • Water Temperature
  • Weather Map
  • Weather Widgets
  • user-avatar
    Login

    Hourly Weather Lubango

    Today, 25 February, Tuesday

    Time Temperature Precipitation Wind Pressure Humidity
    00:00 +16°C° 0 mm 1 mps 607 mmHg 85%
    01:00 +15°C° 0 mm 1 mps 607 mmHg 85%
    02:00 +15°C° 0 mm 1 mps 607 mmHg 84%
    03:00 +15°C° 0 mm 1 mps 606 mmHg 83%
    04:00 +15°C° 0 mm 1 mps 606 mmHg 81%
    05:00 +16°C° 0 mm 1 mps 607 mmHg 80%
    06:00 +15°C° 0 mm 0 mps 607 mmHg 78%
    07:00 +17°C° 0 mm 0 mps 608 mmHg 77%
    08:00 +21°C° 0 mm 1 mps 609 mmHg 69%
    09:00 +23°C° 0 mm 1 mps 610 mmHg 61%
    10:00 +25°C° 0 mm 1 mps 610 mmHg 53%
    11:00 +25°C° 0 mm 1 mps 610 mmHg 53%
    12:00 +26°C° 0 mm 1 mps 610 mmHg 52%
    13:00 +27°C° 0 mm 1 mps 610 mmHg 51%
    14:00 +26°C° 0.4 mm 2 mps 609 mmHg 55%
    15:00 +25°C° 0.4 mm 2 mps 608 mmHg 60%
    16:00 +24°C° 0.4 mm 3 mps 607 mmHg 64%
    17:00 +21°C° 0.1 mm 2 mps 607 mmHg 71%
    18:00 +20°C° 0.1 mm 2 mps 607 mmHg 79%
    19:00 +19°C° 0.1 mm 1 mps 606 mmHg 86%
    20:00 +19°C° 0 mm 1 mps 607 mmHg 86%
    21:00 +18°C° 0 mm 1 mps 607 mmHg 86%
    22:00 +16°C° 0 mm 0 mps 607 mmHg 87%
    23:00 +18°C° 0 mm 1 mps 607 mmHg 87%

    Tomorrow, 26 February, Wednesday

    Time Temperature Precipitation Wind Pressure Humidity
    00:00 +16°C° 0 mm 1 mps 607 mmHg 87%
    01:00 +16°C° 0 mm 1 mps 607 mmHg 87%
    02:00 +16°C° 0 mm 1 mps 607 mmHg 87%
    03:00 +16°C° 0 mm 1 mps 606 mmHg 88%
    04:00 +14°C° 0 mm 0 mps 606 mmHg 88%
    05:00 +15°C° 0 mm 0 mps 606 mmHg 86%
    06:00 +15°C° 0 mm 0 mps 607 mmHg 84%
    07:00 +16°C° 0 mm 0 mps 607 mmHg 82%
    08:00 +20°C° 0 mm 1 mps 608 mmHg 74%
    09:00 +22°C° 0 mm 1 mps 609 mmHg 66%
    10:00 +25°C° 0 mm 1 mps 610 mmHg 57%
    11:00 +25°C° 0.4 mm 1 mps 610 mmHg 58%
    12:00 +25°C° 0.4 mm 2 mps 609 mmHg 59%
    13:00 +25°C° 0.4 mm 2 mps 609 mmHg 60%
    14:00 +25°C° 0.9 mm 2 mps 608 mmHg 59%
    15:00 +25°C° 0.9 mm 2 mps 608 mmHg 59%
    16:00 +24°C° 0.9 mm 2 mps 607 mmHg 59%
    17:00 +23°C° 0.1 mm 2 mps 607 mmHg 65%
    18:00 +21°C° 0.1 mm 1 mps 607 mmHg 71%
    19:00 +19°C° 0.1 mm 1 mps 607 mmHg 78%
    20:00 +18°C° 0 mm 1 mps 607 mmHg 78%
    21:00 +18°C° 0 mm 1 mps 607 mmHg 78%
    22:00 +16°C° 0 mm 1 mps 607 mmHg 79%
    23:00 +16°C° 0 mm 1 mps 607 mmHg 78%

    Day after tomorrow, 27 February, Thursday

    Time Temperature Precipitation Wind Pressure Humidity
    00:00 +16°C° 0 mm 1 mps 607 mmHg 77%
    01:00 +16°C° 0 mm 1 mps 607 mmHg 76%
    02:00 +15°C° 0 mm 1 mps 607 mmHg 78%
    03:00 +14°C° 0 mm 0 mps 606 mmHg 79%
    04:00 +13°C° 0 mm 0 mps 606 mmHg 81%
    05:00 +14°C° 0 mm 0 mps 606 mmHg 79%
    06:00 +15°C° 0 mm 0 mps 607 mmHg 78%
    07:00 +16°C° 0 mm 1 mps 608 mmHg 77%
    08:00 +19°C° 0 mm 1 mps 608 mmHg 68%
    09:00 +22°C° 0 mm 1 mps 609 mmHg 59%
    10:00 +24°C° 0 mm 1 mps 610 mmHg 50%
    11:00 +25°C° 0 mm 1 mps 610 mmHg 49%
    12:00 +26°C° 0 mm 1 mps 610 mmHg 48%
    13:00 +27°C° 0 mm 1 mps 610 mmHg 46%
    14:00 +26°C° 0.1 mm 2 mps 609 mmHg 50%
    15:00 +25°C° 0.1 mm 2 mps 608 mmHg 53%
    16:00 +25°C° 0.1 mm 3 mps 607 mmHg 57%
    17:00 +23°C° 0.1 mm 2 mps 607 mmHg 62%
    18:00 +20°C° 0.1 mm 2 mps 607 mmHg 67%
    19:00 +18°C° 0.1 mm 1 mps 606 mmHg 73%
    20:00 +18°C° 0 mm 1 mps 607 mmHg 74%
    21:00 +16°C° 0 mm 1 mps 607 mmHg 75%
    22:00 +16°C° 0 mm 1 mps 607 mmHg 76%
    23:00 +15°C° 0 mm 1 mps 607 mmHg 78%

    28 February, Friday

    Time Temperature Precipitation Wind Pressure Humidity
    00:00 +15°C° 0 mm 1 mps 607 mmHg 80%
    01:00 +13°C° 0 mm 0 mps 607 mmHg 82%
    02:00 +13°C° 0 mm 0 mps 606 mmHg 81%
    03:00 +13°C° 0 mm 0 mps 606 mmHg 80%
    04:00 +13°C° 0 mm 0 mps 606 mmHg 79%
    05:00 +13°C° 0 mm 0 mps 606 mmHg 77%
    06:00 +14°C° 0 mm 0 mps 607 mmHg 74%
    07:00 +15°C° 0 mm 1 mps 607 mmHg 71%
    08:00 +19°C° 0 mm 1 mps 608 mmHg 62%
    09:00 +21°C° 0 mm 1 mps 609 mmHg 52%
    10:00 +23°C° 0 mm 2 mps 610 mmHg 42%
    11:00 +24°C° 0 mm 2 mps 610 mmHg 41%
    12:00 +24°C° 0 mm 2 mps 610 mmHg 41%
    13:00 +25°C° 0 mm 3 mps 610 mmHg 40%
    14:00 +24°C° 0 mm 3 mps 609 mmHg 41%
    15:00 +24°C° 0 mm 3 mps 609 mmHg 42%
    16:00 +22°C° 0 mm 3 mps 608 mmHg 43%
    17:00 +20°C° 0 mm 2 mps 608 mmHg 51%
    18:00 +18°C° 0 mm 2 mps 607 mmHg 59%
    19:00 +18°C° 0 mm 1 mps 607 mmHg 67%
    20:00 +16°C° 0 mm 1 mps 607 mmHg 68%
    21:00 +16°C° 0 mm 1 mps 607 mmHg 70%
    22:00 +15°C° 0 mm 1 mps 607 mmHg 71%
    23:00 +15°C° 0 mm 1 mps 607 mmHg 70%

    29 February, Saturday

    Time Temperature Precipitation Wind Pressure Humidity
    00:00 +15°C° 0 mm 1 mps 607 mmHg 69%
    01:00 +14°C° 0 mm 1 mps 606 mmHg 68%
    02:00 +14°C° 0 mm 1 mps 606 mmHg 63%
    03:00 +14°C° 0 mm 1 mps 606 mmHg 57%
    04:00 +14°C° 0 mm 1 mps 606 mmHg 51%
    05:00 +14°C° 0 mm 1 mps 606 mmHg 49%
    06:00 +14°C° 0 mm 1 mps 607 mmHg 47%
    07:00 +14°C° 0 mm 1 mps 607 mmHg 45%
    08:00 +17°C° 0 mm 2 mps 608 mmHg 41%
    09:00 +19°C° 0 mm 2 mps 609 mmHg 38%
    10:00 +21°C° 0 mm 2 mps 611 mmHg 34%
    11:00 +22°C° 0 mm 3 mps 611 mmHg 33%
    12:00 +24°C° 0 mm 3 mps 610 mmHg 33%
    13:00 +25°C° 0 mm 3 mps 610 mmHg 32%
    14:00 +24°C° 0 mm 3 mps 610 mmHg 34%
    15:00 +24°C° 0 mm 3 mps 609 mmHg 36%
    16:00 +22°C° 0 mm 4 mps 609 mmHg 38%
    17:00 +20°C° 0 mm 3 mps 608 mmHg 44%
    18:00 +18°C° 0 mm 2 mps 608 mmHg 50%
    19:00 +16°C° 0 mm 2 mps 607 mmHg 56%
    20:00 +15°C° 0 mm 1 mps 608 mmHg 54%
    21:00 +15°C° 0 mm 1 mps 608 mmHg 53%
    22:00 +14°C° 0 mm 1 mps 608 mmHg 52%
    23:00 +14°C° 0 mm 1 mps 608 mmHg 48%

    1 March, Sunday

    Time Temperature Precipitation Wind Pressure Humidity
    00:00 +14°C° 0 mm 1 mps 608 mmHg 45%
    01:00 +14°C° 0 mm 1 mps 608 mmHg 42%
    02:00 +14°C° 0 mm 1 mps 608 mmHg 40%
    03:00 +14°C° 0 mm 1 mps 608 mmHg 37%
    04:00 +13°C° 0 mm 1 mps 607 mmHg 35%
    05:00 +14°C° 0 mm 1 mps 608 mmHg 38%
    06:00 +14°C° 0 mm 1 mps 608 mmHg 40%
    07:00 +14°C° 0 mm 1 mps 608 mmHg 42%
    08:00 +17°C° 0 mm 2 mps 609 mmHg 39%
    09:00 +19°C° 0 mm 2 mps 611 mmHg 36%
    10:00 +22°C° 0 mm 3 mps 612 mmHg 32%
    11:00 +24°C° 0 mm 3 mps 612 mmHg 32%
    12:00 +24°C° 0 mm 3 mps 611 mmHg 31%
    13:00 +25°C° 0 mm 3 mps 611 mmHg 31%
    14:00 +25°C° 0 mm 3 mps 610 mmHg 33%
    15:00 +23°C° 0 mm 4 mps 610 mmHg 34%
    16:00 +23°C° 0 mm 4 mps 609 mmHg 36%
    17:00 +21°C° 0 mm 3 mps 608 mmHg 42%
    18:00 +18°C° 0 mm 3 mps 608 mmHg 48%
    19:00 +16°C° 0 mm 2 mps 607 mmHg 53%
    20:00 +16°C° 0 mm 2 mps 607 mmHg 52%
    21:00 +15°C° 0 mm 2 mps 607 mmHg 51%
    22:00 +15°C° 0 mm 2 mps 608 mmHg 50%
    23:00 +15°C° 0 mm 2 mps 607 mmHg 49%
    Show more